Weather reports worldwide

Advertisment
Cottbus, Germany (10496): temperature & dewpoint: 14.09.2018 19:00:00 - 20.09.2018 19:00:00 (CEST)Cottbus, Germany (10496): temperature 5cm & temperature -5cm: 14.09.2018 19:00:00 - 20.09.2018 19:00:00 (CEST)Cottbus, Germany (10496): temperature -20cm & temperature -100cm: 14.09.2018 19:00:00 - 20.09.2018 19:00:00 (CEST)Cottbus, Germany (10496): wind speed & gusts: 14.09.2018 19:00:00 - 20.09.2018 19:00:00 (CEST)Cottbus, Germany (10496): wind direction: 14.09.2018 19:00:00 - 20.09.2018 19:00:00 (CEST)Cottbus, Germany (10496): reduced air pressure: 14.09.2018 19:00:00 - 20.09.2018 19:00:00 (CEST)Cottbus, Germany (10496): visibility: 14.09.2018 19:00:00 - 20.09.2018 19:00:00 (CEST)Cottbus, Germany (10496): sunshine duration: 14.09.2018 19:00:00 - 20.09.2018 19:00:00 (CEST)Cottbus, Germany (10496): precipitation: 14.09.2018 19:00:00 - 20.09.2018 19:00:00 (CEST)
Date & Time tt [°C] td [°C] tt 5cm [°C] tt -5cm [°C] tt -20cm [°C] tt -100cm [°C] ff [km/h] ff [kn] fx [km/h] fx [kn] dd ppp [hPa] vv [km] sd [min] rr [mm]
20.09.2018 19:00:00 25,9 13,7 22,0 27,7 24,8 19,8 3 2 19 10 SSW 1014,5 47 33 0,0
20.09.2018 18:00:00 29,7 12,4 30,2 30,4 24,6 19,8 10 6 23 13 SW 1014,8 50 60 0,0
20.09.2018 17:00:00 30,2 12,7 31,7 31,8 24,2 19,8 15 8 34 19 SW 1015,0 39 60 0,0
20.09.2018 16:00:00 30,6 13,0 33,2 32,3 23,6 19,8 17 9 31 17 WSW 1015,4 28 57 0,0
20.09.2018 15:00:00 29,6 13,6 34,2 32,3 22,9 19,8 8 4 46 25 WSW 1016,1 16 60 0,0
20.09.2018 14:00:00 28,1 13,5 31,6 30,7 22,2 19,8 10 5 23 12 SSW 1017,0 45 24 0,0
20.09.2018 13:00:00 27,5 13,7 31,0 30,6 21,5 19,8 9 5 19 11 SW 1017,6 44 52 0,0
20.09.2018 12:00:00 25,4 13,3 28,0 28,6 20,8 19,8 5 3 12 7 S 1018,4 33 60 0,0
20.09.2018 11:00:00 23,9 12,9 27,9 25,4 20,3 19,8 5 3 9 5 SW 1019,1 36 60 0,0
20.09.2018 10:00:00 22,0 12,8 24,8 21,4 20,1 19,8 5 3 15 8 W 1019,0 38 57 0,0
20.09.2018 09:00:00 20,3 13,3 20,4 19,6 20,1 19,8 8 5 15 8 WSW 1019,0 44 58 0,0
20.09.2018 08:00:00 18,4 12,7 18,3 17,5 20,3 19,8 6 3 11 6 SSW 1018,6 38 21 0,0
20.09.2018 07:00:00 15,1 12,1 12,7 17,0 20,6 19,7 8 4 10 5 SSW 1018,3 29 0 0,0
20.09.2018 06:00:00 16,8 12,3 13,2 17,5 20,8 19,7 6 3 12 7 SW 1018,1 38 0 0,0
20.09.2018 05:00:00 18,1 12,3 14,0 17,9 21,1 19,7 8 4 12 6 SSW 1017,9 39 0 0,0
20.09.2018 04:00:00 19,0 12,2 15,7 18,3 21,4 19,7 9 5 14 7 SSW 1017,8 38 0 0,0
20.09.2018 03:00:00 19,5 12,1 16,4 18,6 21,7 19,7 9 5 14 7 SSW 1017,7 37 0 0,0
20.09.2018 02:00:00 19,9 11,9 16,3 18,9 22,1 19,7 9 5 13 7 SSW 1017,9 34 0 0,0
20.09.2018 01:00:00 19,8 11,9 15,9 19,3 22,4 19,7 8 4 12 7 SW 1017,9 31 0 0,0
20.09.2018 00:00:00 18,1 11,8 14,2 20,0 22,8 19,7 7 4 9 5 SSW 1017,9 27 0 0,0
19.09.2018 23:00:00 19,4 11,8 15,7 20,9 23,3 19,7 5 3 13 7 SSW 1017,8 29 0 0,0
19.09.2018 22:00:00 22,0 12,0 18,2 21,6 23,7 19,7 7 4 12 7 S 1017,6 30 0 0,0
19.09.2018 21:00:00 21,4 12,1 17,1 22,8 24,1 19,7 7 4 13 7 SSE 1017,6 34 0 0,0
19.09.2018 20:00:00 21,5 12,3 17,8 24,7 24,4 19,7 5 3 9 5 SSE 1017,4 34 0 0,0
19.09.2018 19:00:00 26,4 11,5 23,5 27,4 24,5 19,7 7 4 16 9 S 1017,2 38 36 0,0
19.09.2018 18:00:00 28,5 11,3 29,0 30,2 24,3 19,7 8 4 21 11 SSW 1017,0 49 60 0,0
19.09.2018 17:00:00 29,1 11,1 31,2 32,0 23,9 19,7 13 7 25 14 WSW 1017,3 29 60 0,0
19.09.2018 16:00:00 28,9 11,9 31,9 33,3 23,2 19,7 9 5 21 11 S 1017,5 37 60 0,0
19.09.2018 15:00:00 28,6 11,9 33,7 33,1 22,3 19,7 6 3 20 11 SW 1018,0 42 60 0,0
19.09.2018 14:00:00 27,3 11,2 31,9 32,2 21,5 19,7 6 3 15 8 WSW 1018,4 47 60 0,0
19.09.2018 13:00:00 25,6 11,5 30,4 29,2 20,7 19,7 5 3 16 8 WNW 1018,5 37 52 0,0
19.09.2018 12:00:00 25,1 11,7 28,4 27,1 20,0 19,7 6 3 15 8 NNE 1019,0 31 45 0,0
19.09.2018 11:00:00 23,3 12,4 26,9 24,5 19,5 19,7 6 4 15 8 N 1019,1 28 51 0,0
19.09.2018 10:00:00 20,8 12,0 22,3 20,1 19,3 19,7 6 3 12 6 NNE 1018,9 26 35 0,0
19.09.2018 09:00:00 19,2 11,2 20,3 18,4 19,4 19,7 5 3 10 6 N 1018,3 25 57 0,0
19.09.2018 08:00:00 15,6 11,7 15,1 15,8 19,6 19,7 3 2 8 5 W 1017,9 18 24 0,0
19.09.2018 07:00:00 12,9 11,4 10,4 15,8 19,9 19,6 3 2 9 5 WSW 1017,1 12 0 0,0
19.09.2018 06:00:00 13,8 11,7 10,9 16,2 20,2 19,6 6 3 10 5 SSW 1016,5 16 0 0,0
19.09.2018 05:00:00 15,4 12,2 11,5 16,7 20,5 19,6 8 4 11 6 SW 1016,1 18 0 0,0
19.09.2018 04:00:00 17,0 12,7 13,0 17,1 20,9 19,6 8 4 11 6 SSW 1015,4 22 0 0,0
19.09.2018 03:00:00 17,6 12,7 12,7 17,4 21,2 19,6 7 4 11 6 S 1014,9 25 0 0,0
19.09.2018 02:00:00 15,8 12,0 12,1 17,9 21,6 19,6 6 3 11 6 S 1015,1 24 0 0,0
19.09.2018 01:00:00 15,7 11,8 12,4 18,7 22,1 19,6 6 3 10 5 SSW 1015,0 25 0 0,0
19.09.2018 00:00:00 16,9 12,2 13,2 19,6 22,5 19,6 5 3 10 5 S 1014,9 30 0 0,0
18.09.2018 23:00:00 21,1 12,1 16,5 20,7 22,9 19,6 7 4 17 9 S 1014,7 33 0 0,0
18.09.2018 22:00:00 22,6 12,0 20,5 21,4 23,3 19,6 9 5 19 10 S 1014,4 36 0 0,0
18.09.2018 21:00:00 22,5 11,7 17,8 22,4 23,8 19,6 8 5 13 7 SSE 1014,3 38 0 0,0
18.09.2018 20:00:00 20,9 11,2 16,7 24,2 24,1 19,6 6 4 11 6 SE 1014,0 33 0 0,0
18.09.2018 19:00:00 26,2 10,4 20,7 27,3 24,2 19,6 5 3 13 7 S 1013,7 36 40 0,0
18.09.2018 18:00:00 29,2 8,7 29,7 30,2 24,0 19,6 11 6 22 12 SSW 1013,8 35 60 0,0
18.09.2018 17:00:00 29,3 10,7 31,3 32,1 23,5 19,6 11 6 22 12 S 1013,9 48 60 0,0
18.09.2018 16:00:00 29,5 11,3 32,2 33,1 22,8 19,6 10 6 28 15 S 1014,1 35 60 0,0
18.09.2018 15:00:00 29,2 10,7 32,8 33,5 21,9 19,6 11 6 26 14 SSW 1014,8 31 60 0,0
18.09.2018 14:00:00 29,2 13,1 33,1 32,5 20,9 19,6 12 7 25 13 S 1015,3 25 60 0,0
18.09.2018 13:00:00 28,0 12,0 31,5 30,6 19,9 19,6 14 8 22 12 SSE 1015,8 29 60 0,0
18.09.2018 12:00:00 27,0 13,0 30,7 28,0 18,9 19,6 9 5 21 11 SSW 1016,5 37 60 0,0
18.09.2018 11:00:00 25,8 12,5 29,5 24,2 18,3 19,6 7 4 18 10 S 1016,9 28 60 0,0
18.09.2018 10:00:00 22,6 11,5 24,9 18,7 18,1 19,6 8 5 13 7 SSE 1017,2 32 60 0,0
18.09.2018 09:00:00 18,0 9,9 17,7 16,8 18,1 19,6 4 2 7 4 ESE 1017,5 32 60 0,0
18.09.2018 08:00:00 13,4 9,2 13,4 14,1 18,3 19,6 5 3 10 5 E 1017,5 15 26 0,0
18.09.2018 07:00:00 10,4 8,5 7,9 13,8 18,6 19,6 7 4 9 5 E 1017,4 19 0 0,0
18.09.2018 06:00:00 10,1 8,4 7,7 14,1 18,9 19,6 6 3 8 4 E 1017,5 21 0 0,0
18.09.2018 05:00:00 10,6 8,4 7,9 14,5 19,3 19,6 5 3 6 4 ENE 1017,7 26 0 0,0
18.09.2018 04:00:00 11,5 8,7 8,1 14,9 19,6 19,6 5 3 6 4 E 1017,9 28 0 0,0
18.09.2018 03:00:00 11,3 8,5 8,4 15,5 20,0 19,6 5 3 7 4 E 1018,0 28 0 0,0
18.09.2018 02:00:00 11,9 8,6 9,3 16,1 20,4 19,6 4 2 7 4 SE 1018,3 32 0 0,0
18.09.2018 01:00:00 12,2 8,6 9,8 16,7 20,9 19,6 3 1 10 6 SE 1018,5 37 0 0,0
18.09.2018 00:00:00 13,0 8,8 10,1 17,3 21,3 19,6 5 3 8 4 S 1018,5 35 0 0,0
17.09.2018 23:00:00 13,3 9,4 10,6 18,1 21,8 19,6 5 3 9 5 SSE 1018,6 31 0 0,0
17.09.2018 22:00:00 14,0 10,2 11,3 19,1 22,3 19,6 3 2 8 4 ESE 1018,7 34 0 0,0
17.09.2018 21:00:00 15,2 9,8 12,0 20,5 22,8 19,7 3 1 5 3 E 1018,9 38 0 0,0
17.09.2018 20:00:00 17,5 8,2 13,5 22,5 23,2 19,7 3 2 4 2 NE 1018,6 35 0 0,0
17.09.2018 19:00:00 22,5 9,1 17,1 25,5 23,3 19,7 2 1 9 5 NE 1018,2 55 14 0,0
17.09.2018 18:00:00 26,2 5,6 25,8 28,3 23,2 19,7 6 3 15 8 SW 1018,1 67 45 0,0
17.09.2018 17:00:00 27,1 4,9 29,3 30,6 22,7 19,7 8 4 22 12 SSW 1018,4 50 60 0,0
17.09.2018 16:00:00 27,5 4,4 30,7 31,7 22,0 19,7 6 3 23 12 SW 1018,8 67 60 0,0
17.09.2018 15:00:00 27,1 4,6 31,1 31,8 21,1 19,7 13 7 29 16 SW 1019,2 39 60 0,0
17.09.2018 14:00:00 26,6 6,5 31,0 30,5 20,2 19,7 9 5 25 13 WSW 1019,6 36 60 0,0
17.09.2018 13:00:00 24,7 6,6 27,4 28,9 19,2 19,7 7 4 17 9 WSW 1020,4 61 60 0,0
17.09.2018 12:00:00 24,9 7,5 28,8 26,8 18,2 19,7 9 5 18 10 SW 1020,4 47 60 0,0
17.09.2018 11:00:00 22,5 8,4 26,4 22,8 17,6 19,7 6 3 13 7 S 1020,7 29 60 0,0
17.09.2018 10:00:00 19,6 8,8 22,7 17,2 17,4 19,7 7 4 18 10 SSW 1020,7 23 60 0,0
17.09.2018 09:00:00 16,1 8,3 15,6 15,7 17,5 19,7 9 5 15 8 SSW 1020,8 34 60 0,0
17.09.2018 08:00:00 10,7 6,9 10,2 12,7 17,8 19,7 4 2 6 3 S 1021,2 20 29 0,0
17.09.2018 07:00:00 8,0 7,0 5,5 12,9 18,1 19,7 4 2 7 4 E 1021,0 18 0 0,0
17.09.2018 06:00:00 8,8 7,3 6,5 13,7 18,4 19,7 4 2 5 3 NE 1021,0 26 0 0,0
17.09.2018 05:00:00 9,4 7,4 8,0 14,0 18,8 19,7 3 2 6 4 SE 1020,8 27 0 0,0
17.09.2018 04:00:00 10,0 7,8 7,7 14,5 19,1 19,7 4 2 6 3 SE 1020,9 35 0 0,0
17.09.2018 03:00:00 11,2 7,9 8,7 15,0 19,5 19,7 4 2 10 5 ESE 1020,9 37 0 0,0
17.09.2018 02:00:00 11,3 8,2 8,7 15,5 19,8 19,7 5 3 8 4 SSE 1021,0 39 0 0,0
17.09.2018 01:00:00 12,1 8,4 9,7 16,0 20,2 19,7 4 2 7 4 ESE 1021,2 37 0 0,0
17.09.2018 00:00:00 12,0 8,6 9,8 16,4 20,7 19,8 6 3 10 5 ESE 1021,3 38 0 0,0
16.09.2018 23:00:00 11,9 8,3 9,1 17,2 21,2 19,8 5 3 11 6 E 1021,8 38 0 0,0
16.09.2018 22:00:00 13,4 9,1 10,4 18,3 21,7 19,8 5 3 9 5 SE 1021,8 31 0 0,0
16.09.2018 21:00:00 14,4 9,6 11,8 19,7 22,1 19,8 4 2 6 4 E 1021,9 36 0 0,0
16.09.2018 20:00:00 16,0 9,4 12,7 21,4 22,5 19,8 4 2 8 4 E 1021,6 24 0 0,0
16.09.2018 19:00:00 20,5 8,3 17,0 23,8 22,7 19,8 6 3 9 5 SE 1021,5 57 1 0,0
16.09.2018 18:00:00 22,0 7,1 22,0 26,4 22,6 19,8 9 5 16 9 SW 1021,5 70 48 0,0
16.09.2018 17:00:00 23,1 7,4 24,9 28,5 22,2 19,8 9 5 22 12 SW 1022,0 61 60 0,0
16.09.2018 16:00:00 23,3 7,2 26,9 29,9 21,5 19,8 6 4 23 12 S 1022,4 40 56 0,0
16.09.2018 15:00:00 22,7 7,3 26,7 29,9 20,7 19,8 9 5 24 13 S 1023,2 33 52 0,0
16.09.2018 14:00:00 22,1 7,7 27,1 29,8 19,7 19,9 10 5 24 13 S 1024,0 33 60 0,0
16.09.2018 13:00:00 20,8 8,4 24,1 27,8 18,7 19,9 6 3 16 9 SSW 1024,5 38 51 0,0
16.09.2018 12:00:00 20,1 9,0 23,4 24,8 17,9 19,9 7 4 15 8 S 1025,1 23 55 0,0
16.09.2018 11:00:00 18,6 8,7 22,3 21,6 17,4 19,9 6 4 14 8 SSW 1025,6 40 60 0,0
16.09.2018 10:00:00 16,8 9,0 19,9 17,0 17,2 19,9 4 2 10 6 SSE 1025,7 32 60 0,0
16.09.2018 09:00:00 13,8 8,4 14,6 15,2 17,2 19,9 3 1 8 5 WSW 1025,8 21 60 0,0
16.09.2018 08:00:00 9,4 6,3 9,1 12,6 17,5 19,9 2 1 5 3 S 1025,5 27 25 0,0
16.09.2018 07:00:00 7,1 6,0 5,4 12,5 17,8 19,9 2 1 4 2 SSE 1025,2 20 0 0,0
16.09.2018 06:00:00 7,6 6,8 5,6 13,0 18,1 19,9 2 1 5 3 N 1025,2 24 0 0,0
16.09.2018 05:00:00 8,0 6,7 6,4 13,5 18,5 19,9 4 2 5 3 SW 1025,4 27 0 0,0
16.09.2018 04:00:00 8,5 7,2 6,8 14,0 18,9 19,9 3 2 6 3 S 1025,5 32 0 0,0
16.09.2018 03:00:00 9,3 7,4 7,3 14,6 19,3 19,9 5 3 6 3 SSW 1025,4 39 0 0,0
16.09.2018 02:00:00 10,0 7,9 8,0 15,2 19,7 19,9 4 2 6 3 SSW 1025,2 40 0 0,0
16.09.2018 01:00:00 11,9 8,2 8,5 16,0 20,1 20,0 0 0 12 6 N 1025,0 52 0 0,0
16.09.2018 00:00:00 14,2 8,3 10,6 16,9 20,5 20,0 6 3 12 7 WNW 1024,4 63 0 0,0
15.09.2018 23:00:00 14,5 8,4 11,3 18,3 20,8 20,0 4 2 10 6 W 1024,0 58 0 0,0
15.09.2018 22:00:00 16,6 8,3 16,0 19,3 21,1 20,0 6 4 11 6 SW 1023,4 61 0 0,0
15.09.2018 21:00:00 16,7 8,5 15,5 19,7 21,4 20,0 5 3 10 6 W 1023,2 70 0 0,0
15.09.2018 20:00:00 17,2 8,0 16,3 20,5 21,7 20,0 7 4 11 6 SW 1022,8 61 0 0,0
15.09.2018 19:00:00 18,9 7,8 16,9 22,4 21,9 20,0 6 4 24 13 W 1022,1 8 47 0,0
15.09.2018 18:00:00 20,3 7,4 21,6 24,1 21,8 20,1 11 6 29 16 W 1021,7 70 9 0,0
15.09.2018 17:00:00 20,4 7,2 21,5 25,8 21,6 20,1 10 5 27 14 W 1021,9 70 26 0,0
15.09.2018 16:00:00 20,2 6,9 21,8 27,2 21,1 20,1 10 5 27 15 WNW 1021,8 70 39 0,0
15.09.2018 15:00:00 20,6 6,9 24,5 27,9 20,4 20,1 10 5 27 15 W 1021,7 70 39 0,0
15.09.2018 14:00:00 20,6 6,5 25,7 28,5 19,5 20,1 16 8 35 19 W 1021,7 26 59 0,0
15.09.2018 13:00:00 19,5 6,3 25,0 26,5 18,7 20,1 16 9 36 20 WNW 1021,5 32 59 0,0
15.09.2018 12:00:00 18,9 7,0 22,6 24,2 17,9 20,2 16 8 32 17 W 1021,5 23 60 0,0
15.09.2018 11:00:00 18,0 8,9 22,3 20,8 17,4 20,2 11 6 24 13 W 1021,6 26 50 0,0
15.09.2018 10:00:00 15,7 9,3 17,4 17,4 17,2 20,2 9 5 23 12 W 1021,5 20 3 0,0
15.09.2018 09:00:00 14,6 11,0 15,5 15,8 17,1 20,2 9 5 21 12 W 1020,6 14 45 0,0
15.09.2018 08:00:00 11,9 11,3 11,0 14,2 17,2 20,2 4 2 7 4 SW 1020,0 6 0 0,0
15.09.2018 07:00:00 10,9 10,3 10,2 13,8 17,3 20,2 4 2 8 4 S 1019,4 6 0 0,0
15.09.2018 06:00:00 11,1 10,6 10,6 13,9 17,4 20,2 3 2 6 3 SW 1019,2 7 0 0,0
15.09.2018 05:00:00 10,0 9,5 10,1 13,4 17,6 20,3 2 1 5 3 SSE 1019,0 8 0 0,0
15.09.2018 04:00:00 8,5 7,9 6,4 12,9 17,9 20,3 4 2 4 2 E 1018,8 8 0 0,0
15.09.2018 03:00:00 8,7 8,1 6,7 13,2 18,3 20,3 3 2 4 2 E 1019,1 8 0 0,0
15.09.2018 02:00:00 9,1 8,5 7,0 13,6 18,6 20,3 3 2 4 2 E 1019,3 7 0 0,0
15.09.2018 01:00:00 9,9 9,3 6,9 14,3 19,0 20,3 2 1 6 4 S 1019,6 9 0 0,0
15.09.2018 00:00:00 10,8 10,2 8,1 14,9 19,4 20,3 4 2 8 4 SW 1019,7 2,2 0 0,0
14.09.2018 23:00:00 11,9 11,1 9,0 15,8 19,7 20,3 4 2 9 5 S 1019,6 5 0 0,0
14.09.2018 22:00:00 13,2 11,9 10,2 16,8 20,0 20,4 5 3 10 5 SE 1019,9 9 0 0,0
14.09.2018 21:00:00 15,1 12,5 13,4 17,9 20,3 20,4 6 4 12 7 SSE 1019,9 15 0 0,0
14.09.2018 20:00:00 16,1 12,0 13,7 19,3 20,4 20,4 4 2 8 4 SE 1019,7 30 0 0,0
14.09.2018 19:00:00 17,4 12,4 17,1 20,5 20,4 20,4 4 2 8 4 SSW 1019,5 29 0 0,0

tt = temperature
td = dewpoint
tt 5cm = temperature 5cm
tt -5cm = temperature -5cm
tt -20cm = temperature -20cm
tt -100cm = temperature -100cm
ff = wind speed
fx = gusts
dd = wind direction
ppp = reduced air pressure
vv = visibility
sd = sunshine duration
rr = precipitation

Next stations